Home > Time Zones > World Clock > Weather > U.S.A. > Adak > Past weeks

Flag for U.S.A. Weather past 2 weeks in Adak, Alaska, U.S.A.

Now
39 °F

Mostly cloudy.


Feels Like: 29 °F
Forecast: 40 / 43 °F
Wind: 21 mph from Southwest

Location: Adak

Current Time: May 22, 2015 at 11:54:31 PM

Latest Report: May 22, 2015 at 11:36 PM


Visibility: 9 mi

Pressure: 29.25 "Hg

Humidity: 81%

Dew point: 34 °F

Location of AdakLocation

Historic Weather in Adak — Graph

°F

Adak temperature yesterday

Maximum temperature yesterday: 43 °F (at 9:36 AM)
Minimum temperature yesterday: 37 °F (at 12:16 AM)
Average temperature yesterday: 41 °F

Past Weeks' High & Low Weather Summary

 TemperatureHumidityPressure
High48 °F (May 10, 3:16 PM)87% (May 8, 3:16 PM)30.13 "Hg (May 8, 3:16 PM)
Low37 °F (May 8, 12:16 AM)49% (May 20, 8:56 PM)28.96 "Hg (May 12, 6:56 PM)
Average42 °F74%29.52 "Hg
* Reported May 7 10:16 PM — May 22 10:56 PM, Adak, Weather by CustomWeather, © 2015

Note: Actual official high and low records may vary slightly from our data, if they occured in-between our weather recording intervals... More about our weather records

Advertising

Adak weather history for previous 24 hours

 ConditionsComfort  
Time TempWeatherWind HumidityBarometerVisibility
10:56 PM
Fri, May 22
41 °FOvercast.20 mph76%29.24 "Hg10 mi
10:36 PM43 °FMostly cloudy.22 mph71%29.23 "Hg10 mi
10:16 PM43 °FBroken clouds.16 mph71%29.23 "Hg10 mi
9:56 PM43 °FMostly cloudy.16 mph71%29.22 "Hg10 mi
9:36 PM43 °FCloudy.22 mph71%29.21 "Hg10 mi
9:16 PM43 °FCloudy.22 mph71%29.21 "Hg8 mi
8:56 PM43 °FMostly cloudy.20 mph71%29.21 "Hg9 mi
8:36 PM43 °FBroken clouds.26 mph71%29.19 "Hg10 mi
8:16 PM43 °FCloudy.24 mph71%29.19 "Hg10 mi
7:56 PM43 °FMostly cloudy.23 mph76%29.19 "Hg9 mi
7:36 PM43 °FOvercast.17 mph76%29.19 "Hg8 mi
7:16 PM43 °FMostly cloudy.18 mph76%29.19 "Hg9 mi
6:56 PM43 °FMostly cloudy.22 mph76%29.19 "Hg10 mi
6:36 PM45 °FCloudy.23 mph71%29.18 "Hg10 mi
6:16 PM43 °FMostly cloudy.24 mph76%29.17 "Hg5 mi
5:56 PM45 °FMostly cloudy.24 mph71%29.16 "Hg8 mi
5:36 PM45 °FCloudy.26 mph71%29.16 "Hg9 mi
5:16 PM45 °FMostly cloudy.24 mph71%29.16 "Hg9 mi
4:56 PM45 °FMostly cloudy.29 mph71%29.16 "Hg8 mi
4:36 PM45 °FBroken clouds.26 mph76%29.15 "Hg6 mi
4:16 PM45 °FMostly cloudy.23 mph76%29.16 "Hg3 mi
3:56 PM45 °FCloudy.22 mph76%29.15 "Hg2 mi
3:36 PM45 °FMostly cloudy.25 mph81%29.14 "Hg3 mi
3:16 PM45 °FMostly cloudy.25 mph76%29.13 "Hg9 mi
2:56 PM45 °FOvercast.26 mph81%29.12 "Hg4 mi
2:36 PM46 °FMostly cloudy.25 mph76%29.13 "Hg10 mi
2:16 PM45 °FMostly cloudy.20 mph76%29.13 "Hg7 mi
1:56 PM45 °FOvercast.22 mph76%29.12 "Hg4 mi
1:36 PM43 °FMostly cloudy.23 mph81%29.12 "Hg2 mi
1:16 PM43 °FMostly cloudy.22 mph81%29.11 "Hg2 mi
12:56 PM45 °FMostly cloudy.23 mph81%29.10 "Hg8 mi
12:36 PM45 °FMostly cloudy.21 mph76%29.10 "Hg4 mi
12:16 PM45 °FCloudy.26 mph81%29.09 "Hg10 mi
11:56 AM45 °FLow clouds.25 mph76%29.08 "Hg2 mi
11:36 AM45 °FLow clouds.25 mph81%29.08 "Hg2 mi
11:16 AM43 °FLow clouds.24 mph81%29.07 "Hg2 mi
10:56 AM43 °FLow clouds.25 mph81%29.07 "Hg2 mi
10:36 AM43 °FLow clouds.26 mph81%29.05 "Hg4 mi
10:16 AM43 °FLow clouds.28 mph81%29.05 "Hg2 mi
9:56 AM43 °FLow clouds.26 mph81%29.04 "Hg2 mi
9:36 AM43 °FLow clouds.26 mph81%29.05 "Hg6 mi
9:16 AM43 °FLow clouds.20 mph81%29.05 "Hg1 mi
8:56 AM43 °FLow clouds.22 mph81%29.04 "Hg2 mi
8:36 AM43 °FLow clouds.17 mph81%29.04 "Hg3 mi
8:16 AM45 °FMore clouds than sun.18 mph76%29.04 "Hg3 mi
7:56 AM45 °FMostly cloudy.22 mph76%29.03 "Hg10 mi
7:36 AM45 °FOvercast.20 mph76%29.03 "Hg10 mi
7:16 AM45 °FOvercast.14 mph76%29.02 "Hg10 mi
6:56 AM45 °FMostly cloudy.17 mph76%29.02 "Hg10 mi
6:36 AM45 °FMostly cloudy.18 mph76%29.03 "Hg6 mi
6:16 AM45 °FOvercast.16 mph76%29.03 "Hg7 mi
5:56 AM45 °FMostly cloudy.13 mph76%29.04 "Hg5 mi
5:36 AM45 °FOvercast.10 mph76%29.03 "Hg8 mi
5:16 AM45 °FMostly cloudy.20 mph76%29.05 "Hg10 mi
4:56 AM45 °FMostly cloudy.17 mph76%29.06 "Hg10 mi
4:36 AM45 °FPartly cloudy.16 mph76%29.07 "Hg8 mi
4:16 AM45 °FMostly cloudy.21 mph76%29.07 "Hg3 mi
3:56 AM45 °FOvercast.17 mph76%29.14 "Hg5 mi
3:36 AM45 °FMostly cloudy.21 mph76%29.13 "Hg6 mi
3:16 AM45 °FOvercast.14 mph76%29.13 "Hg5 mi
2:56 AM45 °FMostly cloudy.30 mph76%29.12 "Hg5 mi
2:36 AM43 °FOvercast.23 mph81%29.16 "Hg2 mi
2:16 AM43 °FOvercast.23 mph81%29.18 "Hg2 mi
1:56 AM43 °FMostly cloudy.20 mph81%29.20 "Hg2 mi
1:36 AM43 °FMostly cloudy.26 mph81%29.21 "Hg2 mi
1:16 AM43 °FMostly cloudy.31 mph76%29.24 "Hg1 mi
12:56 AM43 °FMostly cloudy.23 mph81%29.28 "Hg1 mi
12:36 AM43 °FMostly cloudy.25 mph76%29.29 "Hg1 mi
12:16 AM43 °FMostly cloudy.32 mph76%29.30 "Hg2 mi
11:56 PM
Thu, May 21
43 °FOvercast.25 mph76%29.32 "Hg2 mi
11:36 PM43 °FOvercast.22 mph76%29.35 "Hg2 mi
11:16 PM43 °FOvercast.22 mph76%29.38 "Hg2 mi
Weather by CustomWeather, © 2015

See weather overviewHow to use our weather pages